Location: Amber Place
(27.9751°N, 82.3711°W)
Time: 18:24:10
(UTC+00:00)

Tiangong - Visible Passes

Search period start: 26 September 2021 00:00
Search period end: 06 October 2021 00:00
Orbit: 382 x 385 km, 41.5° (Epoch: 26 September)

Date Brightness Start Highest point End Pass type
(mag) Time Alt. Az. Time Alt. Az. Time Alt. Az.
26 Sep 2.3 10:08:47 28° NW 10:09:03 28° NNW 10:11:51 10° NE visible
27 Sep 4.4 09:11:56 12° NE 09:11:56 12° NE 09:12:10 10° NE visible
27 Sep 3.5 10:45:02 10° NW 10:46:20 12° NNW 10:47:39 10° N visible
28 Sep 3.5 09:47:13 15° N 09:47:13 15° N 09:48:23 10° NNE visible
05 Oct 3.3 10:50:32 10° NNW 10:53:00 20° NNE 10:55:26 10° ENE visible
